Regional Weather Roundup
Issued by NWS Sterling, VA

Home | Current Version | Previous Version | Graphics & Text | Print | Product List | Glossary On
Versions: 1 2 3 4 5 6 7 8 9 10 11 12 13 14 15 16 17 18 19 20 21 22 23 24 25 26 27 28 29 30 31 32 33 34 35 36 37 38 39 40 41 42 43 44 45 46 47 48 49 50
964
ASUS41 KLWX 221011
RWRLWX

REGIONAL WEATHER ROUNDUP
NATIONAL WEATHER SERVICE BALTIMORE MD/WASHINGTON DC
500 AM EST SUN JAN 22 2017

Note: "FAIR" indicates few or no clouds below 12,000 feet
with no significant weather and/or obstructions to visibility.
 TC=TEMPERATURE CELSIUS

 * =Non NWS site. Station does not report precipitation (e.g. rain,
    snow, etc.), thunder, or fog.

DCZ001-MDZ009-015-VAZ040>042-051-053>054-221100-
WASHINGTON METRO

CITY           SKY/WX    TMP DP  RH WIND       PRES   REMARKS
WASHINGTON NAT FOG       47  47 100 NE6       29.70F VSB 1/8
DULLES         FOG       47  46  97 N3        29.70S VSB 1/8
FT BELVOIR     CLOUDY    46  46 100 CALM      29.69F FOG
QUANTICO       FOG       46  46 100 NE3       29.71S VSB 1/2
COLLEGE PARK*  CLOUDY    45  43  93 N3        29.70R
LEESBURG*      FOG       48  48 100 NE3       29.71R VSB 3/4
GAITHERSBURG*  CLOUDY    45  43  93 CALM      29.74R VSB 3/4

$$

MDZ006>007-011-014-221100-
BALTIMORE METRO

CITY           SKY/WX    TMP DP  RH WIND       PRES   REMARKS
BWI AIRPORT    FOG       45  45 100 NE5       29.69F VSB 1/4
MD SCIENCE CTR   N/A     47  43  86 MISG      29.68F
ANNAPOLIS      FOG       45  43  93 N6        29.69F VSB 1/2
FORT MEADE*    CLOUDY    45  43  93 N3        29.73R VSB 1/2

$$

MDZ012-015-019>023-221100-
MARYLAND EASTERN SHORE

CITY           SKY/WX    TMP DP  RH WIND       PRES   REMARKS
OCEAN CITY     LGT RAIN  47  47 100 NE14      29.66F
SALISBURY      LGT RAIN  48  48 100 NE7       29.65F
EASTON*        RAIN      48  46  93 E6        29.71F

$$

MDZ017>025-221100-
SOUTHERN MARYLAND

CITY           SKY/WX    TMP DP  RH WIND       PRES   REMARKS
PATUXENT RIVER CLOUDY    47  47 100 N9        29.67F FOG
ST INIGOES     CLOUDY    48  47  96 N7        29.65F
LEONARDTOWN*   CLOUDY    45  45 100 CALM      29.69R

$$

MDZ003>005-221100-
NORTH CENTRAL MARYLAND

CITY           SKY/WX    TMP DP  RH WIND       PRES   REMARKS
FREDERICK*     NOT AVBL
HAGERSTOWN APT CLOUDY    44  42  93 N6        29.70R FOG
WESTMINSTER*   NOT AVBL

$$

MDZ501>502-221100-
WESTERN MARYLAND

CITY           SKY/WX    TMP DP  RH WIND       PRES   REMARKS
OAKLAND*       NOT AVBL
CUMBERLAND*    NOT AVBL

$$

VAZ025>031-221100-
SHENANDOAH VALLEY

CITY           SKY/WX    TMP DP  RH WIND       PRES   REMARKS
WINCHESTER*    CLOUDY    43  43 100 CALM      29.69F FOG
FRONT ROYAL*   CLOUDY    45  45 100 CALM      29.69F VSB 1/4
LURAY*         CLOUDY    45  45 100 NE3       29.68F FOG
NEW MARKET*    CLOUDY    45  44  96 NE3       29.68F
STAUNTON*      CLOUDY    45  45  99 CALM      29.67F FOG
WAYNESBORO*    CLOUDY    46  45  96 N5        29.66F

$$

WVZ021-048>050-054>055-221100-
EASTERN WEST VIRGINIA PANHANDLE

CITY           SKY/WX    TMP DP  RH WIND       PRES   REMARKS
MARTINSBURG    FOG       45  44  97 N3        29.70R VSB 1/4
PETERSBURG*    CLOUDY    46  46  97 CALM      29.69F FOG

$$

VAZ036>039-050-221100-
CENTRAL FOOTHILLS

CITY           SKY/WX    TMP DP  RH WIND       PRES   REMARKS
CHARLOTTESVILL FOG       49  48  97 N5        29.67F VSB 1/2
CULPEPER*      FOG       49  49 100 N3        29.71F VSB 1/2
ORANGE*        FOG       48  48 100 CALM      29.69F VSB 1/2
GORDONSVILLE*  CLOUDY    48  48 100 NE5       29.66F FOG
WARRENTON*     FOG       49  46  90 N3        29.69F VSB 1/2

$$

VAZ055>057-221100-
NORTH AND CENTRAL PIEDMONT

CITY           SKY/WX    TMP DP  RH WIND       PRES   REMARKS
FREDERICKSBRG* FOG       48  48 100 CALM      29.68F VSB 3/4
STAFFORD*      FOG       47  47 100 N6        29.73F VSB 3/4

$$

NCZ024-NYZ072-PAZ021-071-VAZ022-071-221100-
OTHER REGIONAL OBSERVATIONS

CITY           SKY/WX    TMP DP  RH WIND       PRES   REMARKS
NEW YORK CITY  CLOUDY    44  44 100 CALM      29.74S FOG
PHILADELPHIA   FOG       45  44  97 E5        29.73F VSB 1/4
PITTSBURGH     CLOUDY    48  48 100 CALM      29.66S
ROANOKE        CLOUDY    50  50 100 CALM      29.65F
RICHMOND       CLOUDY    49  49 100 N9        29.65F
RALEIGH        FOG       53  52  96 CALM      29.64F VSB 1/8

$$

ANZ530>537-221100-
MARINE OBSERVATIONS

STATION/POSITION TIME  TEMP    WIND        PRES
                       AIR SEA DIR/SP/G
                 (UTC) (F)     (DEG/KT/KT) (MB)
THOMAS PT LIGHT  1000   43 40  360/  9/  9   N/A
BALT KEY BRIDGE  0942   44      10/  6/  7 1005.6F
COVE POINT       0942   43      10/  9/ 12 1005.1F
LEWISETTA        0942   46 44  360/  3/  4 1003.9F
SOLOMONS ISLAND  0942   46 42  360/  2/  5   N/A
PINEY POINT      0942           20/  6/  7   N/A

$$





USA.gov is the U.S. government's official web portal to all federal, state and local government web resources and services.